Regional Weather Roundup
Issued by NWS Charleston, SC

Current Version | Previous Version | Text Only | Print | Product List | Glossary Off
Versions: 1 2 3 4 5 6 7 8 9 10 11 12 13 14 15 16 17 18 19 20 21 22 23 24 25 26 27 28 29 30 31 32 33 34 35 36 37 38 39 40 41 42 43 44 45 46 47 48 49 50

000
ASUS42 KCHS 050326
RWRCHS

REGIONAL WEATHER ROUNDUP
NATIONAL WEATHER SERVICE CHARLESTON SC
1000 PM EST WED MAR 04 2015

NOTE: "FAIR" INDICATES FEW OR NO CLOUDS BELOW 12,000 FEET WITH NO
SIGNIFICANT WEATHER AND/OR OBSTRUCTIONS TO VISIBILITY.

NOT ALL STATIONS ARE QUALITY CONTROLLED BY THE NATIONAL
WEATHER SERVICE. USE DATA WITH CAUTION...ESPECIALLY
DEWPOINT OBSERVATIONS.

SCZ027-030-031-034>040-042>050-050400-
...SOUTHEAST SOUTH CAROLINA...

CITY           SKY/WX    TMP DP  RH WIND       PRES   REMARKS
N CHARLESTON   MOCLDY    67  63  87 SW13      30.03R
WATERFRONT PRK   N/A     64 N/A N/A SW16G25     N/A
MOUNT PLEASANT FAIR      68  64  88 SW14G21   30.03S
PINOPOLIS      NOT AVBL
MONCKS CORNER  FAIR      68  63  83 SW10      30.01S
SUMMERVILLE    FAIR      68  64  88 S7        30.02S
BEAUFORT MCAS  PTCLDY    65  61  87 S8        30.03R
BEAUFORT ARPT  FAIR      64  63  94 S5        30.03R
HILTON HEAD IS CLEAR     63  61  94 S9G18     30.05R
WALTERBORO     CLEAR     68  64  88 S8        30.02S
ALLENDALE      FAIR      68  61  77 S5        29.99S

...SOUTHERN MIDLANDS AND PEE DEE...

CITY           SKY/WX    TMP DP  RH WIND       PRES   REMARKS
GEORGETOWN     NOT AVBL
KINGSTREE      NOT AVBL
ORANGEBURG     MOCLDY    68  60  75 S9        29.98R
BARNWELL       FAIR      68  59  73 S3        29.99S
AIKEN          FAIR      68  57  68 S8        30.00S
MANNING        FAIR      66  59  77 S5        30.00R
COLUMBIA       PTCLDY    68  56  65 SW3       29.94S
SUMTER         CLOUDY    66  60  81 S8        29.95R
FLORENCE       CLEAR     68  61  78 S10       29.96R
MYRTLE BEACH   NOT AVBL
N MYRTLE BEACH CLEAR     62  60  93 SW18      30.00S

$$

GAZ063-065-086>088-099>101-113>116-118-119-134>141-150-050400-
...SOUTHEAST GEORGIA...

CITY           SKY/WX    TMP DP  RH WIND       PRES   REMARKS
SAVANNAH ARPT  PTCLDY    65  60  84 S7        30.03R
HUNTER AAF     CLEAR     63  62  94 S3        30.02R
FORT STEWART   CLEAR     67  62  83 S3        30.01R
STATESBORO     CLEAR     69  60  74 S6        30.01R
SYLVANIA       CLEAR     69  61  76 S3        30.01S
CLAXTON        FAIR      72  61  68 S6        30.02R

...CSRA...CENTRAL AND FAR SOUTHEAST GEORGIA...

CITY           SKY/WX    TMP DP  RH WIND       PRES   REMARKS
THOMSON        CLEAR     70  64  80 S5        29.99S
AUGUSTA-BUSH   PTCLDY    66  57  72 S8        29.96S
AUGUSTA-DANIEL PTCLDY    71  58  63 S10       29.97S
SWAINSBORO     FAIR      72  52  49 SW7       30.01S
VIDALIA        CLEAR     70  61  73 SW9       30.02S
EASTMAN        FAIR      70  64  81 SW8       30.03S
HAZLEHURST     FAIR      71  64  79 SW8       30.02S
ALMA           CLEAR     69  62  78 SW9       30.04R
WAYCROSS       CLEAR     71  66  86 SW5       30.05S
JESUP          FAIR      72  64  78 SW5       30.05R
BAXLEY         FAIR      72  63  73 SW6       30.04R
BRUNSWICK      CLEAR     64  59  82 SE3       30.06S
SAINT SIMONS   CLEAR     60  57  89 S8        30.06R

$$

SCZ027-028-034-036>038-045-046-048>050-GAZ119-141-050400-
...LAKE AND SUPPLEMENTAL COASTAL OBSERVATIONS...

STATION/POSITION TIME  TEMP    WIND        PRES    WAVE   SWELL
                       AIR SEA DIR/SP/G            HT/PER HT/PER/DIR
                 (UTC) (F)     (DEG/KT/KT) (MB)    (FT/S) (FT/S/D)
UPR LAKE MARION  NOT AVBL
WINYAH BAY       0245   67     220/ 13     1015.0S
LAKE MURRAY      0200   65     210/  8/  9 1013.2S
ACE BASIN NERRS  NOT AVBL
FORT PULASKI     0300   60 52  200/ 11/ 14 1017.7R
SAPELO ISLAND    0300   60     170/  7     1017.0S

$$

ANZ835-935-AMZ111-154-330-350-352-354-370-450-454-472-050400-
...C-MAN AND BUOY OBSERVATIONS...

STATION/POSITION TIME  TEMP    WIND        PRES    WAVE   SWELL
                       AIR SEA DIR/SP/G            HT/PER HT/PER/DIR
                 (UTC) (F)     (DEG/KT/KT) (MB)    (FT/S) (FT/S/D)
BUOY 41004       0250   72 69  190/ 19/ 21 1016.1R   6/ 7   3/ 9
BUOY 41008       0250   60 54  190/ 17/ 19 1017.4R   4/11   2/120/11
FOLLY BEACH CMAN 0300   54     220/ 10/ 11 1017.3R
CAPERS NEARSHORE 0200   56     210/ 10/ 12   N/A
FRIPP NEARSHORE  0200   55     210/ 10/ 12 1016.5R


STATION/POSITION TIME  TEMP    WIND        PRES    WAVE   SWELL
                       AIR SEA DIR/SP/G            HT/PER HT/PER/DIR
                 (UTC) (F)     (DEG/KT/KT) (MB)    (FT/S) (FT/S/D)
5E ST. MARYS GA  0221      55                N/A     3/11   2/120/11
FRYING PAN BUOY  0250   68 63  200/ 16/ 17 1017.0R
BUOY 41025       NOT AVBL
CAPE LOOKOUT NC  0300   61     220/ 13/ 16 1015.8R
BUOY 41002       0250   73 74  220/ 19/ 23 1021.6R   6/10   3/110/10
BUOY 41010       0220   74 75  160/ 14/ 16 1021.4R
ST AUGUSTINE FL  0200   65     180/  7/  7 1019.0R


$$



USA.gov is the U.S. government's official web portal to all federal, state and local government web resources and services.